Regional Weather Roundup
Issued by NWS Newport/Morehead, NC

Current Version | Previous Version | Graphics & Text | Print | Product List | Glossary Off
Versions: 1 2 3 4 5 6 7 8 9 10 11 12 13 14 15 16 17 18 19 20 21 22 23 24 25 26 27 28 29 30 31 32 33 34 35 36 37 38 39 40 41 42 43 44 45 46 47 48 49 50

000
ASUS42 KMHX 191210
RWRMHX
WEATHER ROUNDUP FOR EASTERN NORTH CAROLINA
NATIONAL WEATHER SERVICE NEWPORT/MOREHEAD CITY NC
800 AM EDT SAT APR 19 2014

NOTE: "FAIR" INDICATES FEW OR NO CLOUDS BELOW 12,000 FEET
WITH NO SIGNIFICANT WEATHER AND/OR OBSTRUCTIONS TO VISIBILITY

NCZ015>017-031-032-045>047-102-103-191300-
NORTH COAST

CITY           SKY/WX    TMP DP  RH WIND       PRES   REMARKS
EDENTON        LGT RAIN  47  45  95 N9        30.20S
ELIZABETH CITY LGT RAIN  48  44  86 NE13      30.21R
KITTY HAWK     CLOUDY    47  45  92 N10G20    30.17F
MANTEO         CLOUDY    47  45  92 NE17G24   30.18S

$$

NCZ045>047-081-094-103-104-191300-
CENTRAL COAST

CITY           SKY/WX    TMP DP  RH WIND       PRES   REMARKS
FRISCO         LGT RAIN  52  52 100 NE14G28   30.10S FOG
SWANQUARTER      N/A     52 N/A N/A VRB3G16   30.12R

$$

NCZ095-097-098-100-101-191300-
SOUTHERN COAST

CITY           SKY/WX    TMP DP  RH WIND       PRES   REMARKS
BEAUFORT       HVY RAIN  54  53  97 NE15G26   30.08R FOG
CEDAR ISLAND     N/A     55 N/A N/A N24G36    30.15R
JACKSONVILLE   HVY RAIN  52  52 100 NE13G24   30.06S
NEWPORT          N/A     54  54 100 N9G15       N/A
PINEY ISLAND   HVY RAIN  55  55 100 N21G30    30.10S FOG
WILMINGTON     RAIN      54  51  90 NE18      30.03F FOG


$$

NCZ011>013-027>030-043-044-078>080-089-090>093-098-191300-
COASTAL PLAIN

CITY           SKY/WX    TMP DP  RH WIND       PRES   REMARKS
AHOSKIE        CLOUDY    46  44  92 N7        30.23R
CLINTON        LGT RAIN  48  48 100 NE13G21   30.09S
ELIZABETHTOWN  LGT RAIN  50  50 100 NE5       30.04F
GOLDSBORO      LGT RAIN  48  46  93 N12G21    30.13R
GREENVILLE     LGT RAIN  46  45  93 NE12      30.18S
HAVELOCK       HVY RAIN  53  51  93 N15       30.11R FOG
KENANSVILLE    LGT RAIN  48  46  95 N8G16     30.11S
KINSTON        LGT RAIN  48  46  93 N12G18    30.14R
NEW BERN       HVY RAIN  54  50  87 NE14      30.14R FOG
RICHLANDS      CLOUDY    50 N/A N/A N15       30.08S
ROANOKE RAPIDS NOT AVBL
ROCKY MOUNT    LGT RAIN  46  44  93 N10       30.19R FOG
WASHINGTON     CLOUDY    47  43  86 NE13      30.17R
WHITEVILLE     CLOUDY    53  52  95 NE8       30.01R

$$

AMZ130-135-150-152-154-156-158-170-250-252-270-ANZ085-086-088-633-658-670-191300-
MARINE OBSERVATIONS

STATION/POSITION TIME  TEMP    WIND        PRES    WAVE   SWELL
                       AIR SEA DIR/SP/G            HT/PER HT/PER
                 (UTC) (F)     (DEG/KT/KT) (MB)    (FT/S) (FT/S)
CHESAPEAKE LIGHT 1100   45      30/ 20/ 21 1023.9
BUOY 44014       1200   48 48   20/ 19/ 23 1022.6    7/ 9   5/ 9
DUCK             1200   47 49   20/ 18/ 20 1021.8
2E DUCK          1200      47                N/A     5/11   2/11
OREGON INLET     1200   48 51  360/ 17/ 23 1021.3
BUOY 44095       1200      48                N/A     7/11   3/11
HATTERAS CG      1200   53 57   20/ 21/ 28 1019.0
DIAMOND BUOY     NOT AVBL
CAPE LOOKOUT     1100   55      10/ 18/ 22 1017.9
BEAUFORT LAB     1200   54 58   20/ 14/ 21 1017.6
30 SE NEW RIVER  1200   58 65   30/ 27/ 33 1016.4    8/ 6   2/10
5 SE WRIGHTSVILL 1100   56 59   30/ 17/ 19 1016.9
FRYING PAN BUOY  1200   66 65   60/  4/  4 1014.3    8/ 6   7/ 6
BUOY 41001       NOT AVBL
BUOY 41002       NOT AVBL
BUOY 41004       NOT AVBL

$$



USA.gov is the U.S. government's official web portal to all federal, state and local government web resources and services.